2019-234T02:01:40.341,   1, 180,   1,   120,   4,          0,     46.128,  99216.844,   109.663,   -19.126,     0.601,   197.170, 2, 5.486E-04, -1.00,   2,  3.243E-03,  6.807E-05,  5.086E-14,  1.401E-14,  9.787E+01,  2.696E+01, 255
2019-234T02:03:40.342,   1, 180,   1,   120,   4,          0,     46.128,  99216.844,   109.661,   -19.126,     0.601,   195.961, 2, 5.486E-04, -1.00,   2,  3.175E-03,  6.615E-05,  2.077E-13,  1.505E-14,  4.084E+02,  2.958E+01, 255
2019-234T02:05:40.343,   1, 180,   1,   120,   4,          0,     46.128,  99216.844,   109.660,   -19.125,     0.601,   194.752, 2, 5.486E-04, -1.00,   2,  3.251E-03,  6.805E-05,  5.758E-14,  1.431E-14,  1.106E+02,  2.748E+01, 255
2019-234T02:07:40.345,   1, 180,   1,   120,   4,          0,     46.128,  99216.844,   109.658,   -19.125,     0.601,   193.542, 2, 5.486E-04, -1.00,   2,  3.163E-03,  6.657E-05,  1.706E-13,  1.513E-14,  3.367E+02,  2.986E+01, 255
2019-234T02:09:40.346,   1, 180,   1,   120,   4,          0,     46.128,  99216.844,   109.657,   -19.124,     0.601,   192.333, 2, 5.486E-04, -1.00,   2,  3.142E-03,  6.772E-05,  1.418E-13,  1.520E-14,  2.816E+02,  3.019E+01, 255
2019-234T02:11:40.348,   1, 180,   1,   120,   4,          0,     46.128,  99216.844,   109.655,   -19.124,     0.601,   191.124, 2, 5.486E-04, -1.00,   2,  3.384E-03,  6.885E-05,  8.714E-14,  1.447E-14,  1.607E+02,  2.669E+01, 255
2019-234T02:13:40.349,   1, 180,   1,   120,   4,          0,     46.128,  99216.844,   109.654,   -19.123,     0.601,   189.915, 2, 5.486E-04, -1.00,   2,  3.203E-03,  6.687E-05,  1.661E-13,  1.488E-14,  3.238E+02,  2.901E+01, 255
2019-234T02:15:40.350,   1, 180,   1,   120,   4,          0,     46.128,  99216.844,   109.652,   -19.123,     0.601,   188.706, 2, 5.486E-04, -1.00,   2,  2.843E-03,  6.390E-05,  4.752E-14,  1.439E-14,  1.043E+02,  3.160E+01, 255
2019-234T02:17:40.352,   1, 180,   1,   120,   4,          0,     46.128,  99216.844,   109.651,   -19.122,     0.601,   187.496, 2, 5.486E-04, -1.00,   2,  3.031E-03,  6.650E-05,  6.540E-14,  1.480E-14,  1.346E+02,  3.047E+01, 255
2019-234T02:27:40.359,   1, 180,   1,   120,   4,          0,     46.128,  99216.844,   109.643,   -19.120,     0.601,   181.450, 2, 5.486E-04, -1.00,   2,  2.996E-03,  6.493E-05,  3.934E-14,  1.415E-14,  8.197E+01,  2.948E+01, 255
2019-234T02:29:40.360,   1, 180,   1,   120,   4,          0,     46.128,  99216.844,   109.641,   -19.120,     0.601,   180.241, 2, 5.486E-04, -1.00,   2,  3.217E-03,  6.721E-05,  1.438E-13,  1.532E-14,  2.791E+02,  2.972E+01, 255
2019-234T02:31:40.361,   1, 180,   1,   120,   4,          0,     46.128,  99216.844,   109.640,   -19.119,     0.601,   179.032, 2, 5.486E-04, -1.00,   2,  3.206E-03,  6.672E-05,  1.040E-13,  1.431E-14,  2.025E+02,  2.786E+01, 255
2019-234T02:33:40.363,   1, 180,   1,   120,   4,          0,     46.128,  99216.844,   109.638,   -19.119,     0.601,   177.823, 2, 5.486E-04, -1.00,   2,  3.272E-03,  6.751E-05,  1.208E-13,  1.427E-14,  2.304E+02,  2.723E+01, 255
2019-234T02:35:40.364,   1, 180,   1,   120,   4,          0,     46.128,  99216.844,   109.637,   -19.118,     0.601,   176.614, 2, 5.486E-04, -1.00,   2,  3.277E-03,  6.744E-05,  4.139E-14,  1.415E-14,  7.885E+01,  2.695E+01, 255
2019-234T02:37:40.365,   1, 180,   1,   120,   4,          0,     46.128,  99216.844,   109.635,   -19.118,     0.601,   175.404, 2, 5.486E-04, -1.00,   2,  3.117E-03,  6.611E-05,  1.044E-13,  1.446E-14,  2.089E+02,  2.894E+01, 255
2019-234T02:39:40.367,   1, 180,   1,   120,   4,          0,     46.128,  99216.844,   109.634,   -19.117,     0.601,   174.195, 2, 5.486E-04, -1.00,   2,  3.051E-03,  6.587E-05,  8.061E-14,  1.438E-14,  1.649E+02,  2.942E+01, 255
2019-234T02:41:40.368,   1, 180,   1,   120,   4,          0,     46.128,  99216.844,   109.632,   -19.117,     0.601,   172.986, 2, 5.486E-04, -1.00,   2,  3.232E-03,  6.780E-05,  1.012E-13,  1.457E-14,  1.954E+02,  2.813E+01, 255
2019-234T02:45:40.371,   1, 180,   1,   120,   4,          0,     46.128,  99216.844,   109.629,   -19.116,     0.601,   170.568, 2, 5.486E-04, -1.00,   2,  3.461E-03,  6.991E-05,  1.954E-14,  1.375E-14,  3.524E+01,  2.480E+01, 255
2019-234T02:47:40.372,   1, 180,   1,   120,   4,          0,     46.128,  99216.844,   109.628,   -19.115,     0.601,   169.359, 2, 5.486E-04, -1.00,   2,  3.357E-03,  6.717E-05,  1.415E-13,  1.442E-14,  2.632E+02,  2.681E+01, 255
2019-234T02:49:40.374,   1, 180,   1,   120,   4,          0,     46.128,  99216.844,   109.626,   -19.115,     0.601,   168.149, 2, 5.486E-04, -1.00,   2,  3.408E-03,  6.708E-05,  1.550E-13,  1.425E-14,  2.839E+02,  2.610E+01, 255
2019-234T03:27:40.400,   1, 180,   1,   120,   4,          0,     46.128,  99216.844,   109.597,   -19.106,     0.601,   145.174, 2, 5.486E-04, -1.00,   2,  3.110E-03,  6.651E-05,  1.187E-13,  1.411E-14,  2.382E+02,  2.832E+01, 255
2019-234T03:29:40.401,   1, 180,   1,   120,   4,          0,     46.128,  99216.844,   109.595,   -19.105,     0.601,   143.965, 2, 5.486E-04, -1.00,   2,  3.111E-03,  6.784E-05,  1.039E-13,  1.411E-14,  2.086E+02,  2.832E+01, 255
2019-234T03:31:40.402,   1, 180,   1,   120,   4,          0,     46.128,  99216.844,   109.594,   -19.105,     0.601,   142.756, 2, 5.486E-04, -1.00,   2,  2.830E-03,  6.467E-05,  8.841E-14,  1.453E-14,  1.950E+02,  3.204E+01, 255
2019-234T03:33:40.404,   1, 180,   1,   120,   4,          0,     46.128,  99216.844,   109.592,   -19.104,     0.601,   141.547, 2, 5.486E-04, -1.00,   2,  3.070E-03,  6.770E-05,  8.279E-14,  1.428E-14,  1.683E+02,  2.902E+01, 255
2019-234T03:35:40.405,   1, 180,   1,   120,   4,          0,     46.128,  99216.844,   109.590,   -19.104,     0.601,   140.338, 2, 5.486E-04, -1.00,   2,  3.195E-03,  6.775E-05,  8.980E-14,  1.419E-14,  1.754E+02,  2.772E+01, 255
2019-234T03:37:40.406,   1, 180,   1,   120,   4,          0,     46.128,  99216.844,   109.589,   -19.103,     0.601,   139.129, 2, 5.486E-04, -1.00,   2,  2.751E-03,  6.483E-05,  4.881E-14,  1.437E-14,  1.107E+02,  3.259E+01, 255
2019-234T03:45:40.412,   1, 180,   1,   120,   4,          0,     46.128,  99216.844,   109.583,   -19.101,     0.600,   134.292, 2, 5.486E-04, -1.00,   2,  3.374E-03,  6.744E-05,  4.895E-14,  1.409E-14,  9.056E+01,  2.607E+01, 255
2019-234T03:47:40.413,   1, 180,   1,   120,   4,          0,     46.128,  99216.844,   109.581,   -19.101,     0.600,   133.083, 2, 5.486E-04, -1.00,   2,  3.322E-03,  6.740E-05,  6.907E-14,  1.383E-14,  1.298E+02,  2.597E+01, 255
2019-234T03:49:40.415,   1, 180,   1,   120,   4,          0,     46.128,  99216.844,   109.580,   -19.100,     0.600,   131.873, 2, 5.486E-04, -1.00,   2,  3.378E-03,  6.780E-05,  1.766E-13,  1.466E-14,  3.264E+02,  2.708E+01, 255
2019-234T03:51:40.416,   1, 180,   1,   120,   4,          0,     46.128,  99216.844,   109.578,   -19.100,     0.600,   130.664, 2, 5.486E-04, -1.00,   2,  3.166E-03,  6.734E-05,  7.953E-14,  1.436E-14,  1.568E+02,  2.831E+01, 255
2019-234T04:21:40.437,   1, 180,   1,   120,   4,          0,     46.128,  99216.844,   109.555,   -19.092,     0.600,   112.526, 2, 5.486E-04, -1.00,   2,  2.930E-03,  6.779E-05,  1.439E-14,  1.402E-14,  3.065E+01,  2.987E+01, 255
2019-234T04:23:40.438,   1, 180,   1,   120,   4,          0,     46.128,  99216.844,   109.553,   -19.092,     0.600,   111.317, 2, 5.486E-04, -1.00,   2,  3.120E-03,  6.832E-05,  1.250E-13,  1.432E-14,  2.501E+02,  2.865E+01, 255
2019-234T04:25:40.439,   1, 180,   1,   120,   4,          0,     46.128,  99216.844,   109.552,   -19.091,     0.600,   110.108, 2, 5.486E-04, -1.00,   2,  2.904E-03,  6.420E-05,  9.495E-14,  1.376E-14,  2.040E+02,  2.957E+01, 255
2019-234T04:27:40.441,   1, 180,   1,   120,   4,          0,     46.128,  99216.844,   109.550,   -19.091,     0.600,   108.898, 2, 5.486E-04, -1.00,   2,  2.842E-03,  6.404E-05,  1.472E-13,  1.462E-14,  3.233E+02,  3.211E+01, 255
2019-234T04:29:40.442,   1, 180,   1,   120,   4,          0,     46.128,  99216.844,   109.548,   -19.090,     0.600,   107.689, 2, 5.486E-04, -1.00,   2,  2.829E-03,  6.536E-05,  1.418E-13,  1.498E-14,  3.128E+02,  3.305E+01, 255
2019-234T04:33:40.445,   1, 180,   1,   120,   4,          0,     46.128,  99216.844,   109.545,   -19.090,     0.600,   105.271, 2, 5.486E-04, -1.00,   2,  3.034E-03,  6.679E-05,  4.410E-14,  1.406E-14,  9.073E+01,  2.892E+01, 255
2019-234T04:35:40.446,   1, 180,   1,   120,   4,          0,     46.128,  99216.844,   109.544,   -19.089,     0.600,   104.062, 2, 5.486E-04, -1.00,   2,  2.923E-03,  6.412E-05,  1.141E-13,  1.452E-14,  2.437E+02,  3.100E+01, 255
2019-234T04:37:40.447,   1, 180,   1,   120,   4,          0,     46.128,  99216.844,   109.542,   -19.089,     0.600,   102.853, 2, 5.486E-04, -1.00,   2,  3.293E-03,  6.795E-05,  5.032E-14,  1.375E-14,  9.539E+01,  2.607E+01, 255
2019-234T08:53:40.623,   1, 180,   1,   120,   4,          0,     46.128,  99216.844,   109.339,   -19.026,     0.598,   308.075, 2, 5.486E-04, -1.00,   2,  3.105E-03,  6.618E-05,  1.003E-13,  1.430E-14,  2.017E+02,  2.875E+01, 255
2019-234T08:55:40.624,   1, 180,   1,   120,   4,          0,     46.128,  99216.844,   109.337,   -19.026,     0.598,   306.866, 2, 5.486E-04, -1.00,   2,  3.340E-03,  6.870E-05,  1.171E-13,  1.482E-14,  2.187E+02,  2.769E+01, 255
2019-234T08:57:40.625,   1, 180,   1,   120,   4,          0,     46.128,  99216.844,   109.336,   -19.025,     0.598,   305.657, 2, 5.486E-04, -1.00,   2,  3.479E-03,  6.981E-05,  1.580E-13,  1.480E-14,  2.835E+02,  2.656E+01, 255
2019-234T08:59:40.627,   1, 180,   1,   120,   4,          0,     46.128,  99216.844,   109.334,   -19.025,     0.598,   304.447, 2, 5.486E-04, -1.00,   2,  3.034E-03,  6.684E-05,  1.513E-13,  1.475E-14,  3.113E+02,  3.034E+01, 255
2019-234T09:05:40.631,   1, 180,   1,   120,   4,          0,     46.128,  99216.844,   109.329,   -19.023,     0.598,   300.820, 2, 5.486E-04, -1.00,   2,  2.995E-03,  6.712E-05,  8.627E-14,  1.457E-14,  1.798E+02,  3.037E+01, 255
2019-234T09:07:40.632,   1, 180,   1,   120,   4,          0,     46.128,  99216.844,   109.327,   -19.023,     0.598,   299.611, 2, 5.486E-04, -1.00,   2,  3.034E-03,  6.726E-05,  9.494E-14,  1.454E-14,  1.953E+02,  2.991E+01, 255
2019-234T09:09:40.633,   1, 180,   1,   120,   4,          0,     46.128,  99216.844,   109.326,   -19.022,     0.598,   298.401, 2, 5.486E-04, -1.00,   2,  3.252E-03,  7.063E-05,  1.375E-13,  1.479E-14,  2.639E+02,  2.839E+01, 255
2019-234T09:11:40.635,   1, 180,   1,   120,   4,          0,     46.128,  99216.844,   109.324,   -19.022,     0.598,   297.192, 2, 5.486E-04, -1.00,   2,  3.051E-03,  6.761E-05,  3.465E-14,  1.388E-14,  7.088E+01,  2.840E+01, 255
2019-234T09:17:40.639,   1, 180,   1,   120,   4,          0,     46.128,  99216.844,   109.319,   -19.021,     0.598,   293.565, 2, 5.486E-04, -1.00,   2,  3.035E-03,  6.824E-05,  1.243E-14,  1.443E-14,  2.556E+01,  2.967E+01, 255
2019-234T09:19:40.640,   1, 180,   1,   120,   4,          0,     46.128,  99216.844,   109.318,   -19.020,     0.598,   292.355, 2, 5.486E-04, -1.00,   2,  3.110E-03,  6.822E-05,  1.394E-13,  1.510E-14,  2.798E+02,  3.032E+01, 255
2019-234T09:21:40.642,   1, 180,   1,   120,   4,          0,     46.128,  99216.844,   109.316,   -19.020,     0.598,   291.146, 2, 5.486E-04, -1.00,   2,  2.828E-03,  6.443E-05,  1.448E-14,  1.386E-14,  3.196E+01,  3.060E+01, 255
2019-234T09:39:40.654,   1, 180,   1,   120,   4,          0,     46.128,  99216.844,   109.302,   -19.015,     0.598,   280.263, 2, 5.486E-04, -1.00,   2,  3.065E-03,  6.754E-05,  1.473E-13,  1.467E-14,  2.999E+02,  2.987E+01, 255
2019-234T09:41:40.655,   1, 180,   1,   120,   4,          0,     46.128,  99216.844,   109.300,   -19.015,     0.598,   279.054, 2, 5.486E-04, -1.00,   2,  3.381E-03,  6.845E-05,  9.870E-14,  1.440E-14,  1.822E+02,  2.659E+01, 255
2019-234T09:43:40.657,   1, 180,   1,   120,   4,          0,     46.128,  99216.844,   109.298,   -19.014,     0.598,   277.845, 2, 5.486E-04, -1.00,   2,  3.514E-03,  6.935E-05,  1.892E-13,  1.511E-14,  3.361E+02,  2.684E+01, 255
2019-234T09:45:40.658,   1, 180,   1,   120,   4,          0,     46.128,  99216.844,   109.297,   -19.014,     0.598,   276.636, 2, 5.486E-04, -1.00,   2,  3.365E-03,  6.875E-05,  1.757E-13,  1.528E-14,  3.259E+02,  2.833E+01, 255
2019-234T09:47:40.659,   1, 180,   1,   120,   4,          0,     46.128,  99216.844,   109.295,   -19.013,     0.598,   275.427, 2, 5.486E-04, -1.00,   2,  3.378E-03,  7.029E-05,  1.358E-13,  1.515E-14,  2.510E+02,  2.799E+01, 255
2019-234T10:35:40.692,   1, 180,   1,   120,   4,          0,     46.128,  99216.844,   109.256,   -19.001,     0.598,   246.406, 2, 5.486E-04, -1.00,   2,  3.182E-03,  7.034E-05,  6.936E-15,  1.399E-14,  1.361E+01,  2.745E+01, 255
2019-234T10:37:40.694,   1, 180,   1,   120,   4,          0,     46.128,  99216.844,   109.254,   -19.001,     0.597,   245.197, 2, 5.486E-04, -1.00,   2,  3.058E-03,  6.830E-05,  1.546E-14,  1.406E-14,  3.155E+01,  2.870E+01, 255
2019-234T10:39:40.695,   1, 180,   1,   120,   4,          0,     46.128,  99216.844,   109.253,   -19.001,     0.597,   243.987, 2, 5.486E-04, -1.00,   2,  3.249E-03,  6.977E-05,  6.679E-14,  1.462E-14,  1.283E+02,  2.808E+01, 255
2019-234T10:45:40.699,   1, 180,   1,   120,   4,          0,     46.128,  99216.844,   109.248,   -18.999,     0.597,   240.360, 2, 5.486E-04, -1.00,   2,  3.784E-03,  7.218E-05,  9.517E-14,  1.438E-14,  1.570E+02,  2.372E+01, 255
2019-234T10:47:40.700,   1, 180,   1,   120,   4,          0,     46.128,  99216.844,   109.246,   -18.999,     0.597,   239.151, 2, 5.486E-04, -1.00,   2,  4.185E-03,  7.406E-05,  1.370E-13,  1.500E-14,  2.043E+02,  2.237E+01, 255
2019-234T10:49:40.702,   1, 180,   1,   120,   4,          0,     46.128,  99216.844,   109.244,   -18.998,     0.597,   237.941, 2, 5.486E-04, -1.00,   2,  4.297E-03,  7.586E-05,  8.300E-14,  1.514E-14,  1.206E+02,  2.200E+01, 255
2019-234T10:51:40.703,   1, 180,   1,   120,   4,          0,     46.128,  99216.844,   109.243,   -18.998,     0.597,   236.732, 2, 5.486E-04, -1.00,   2,  4.313E-03,  7.379E-05,  1.212E-13,  1.450E-14,  1.754E+02,  2.099E+01, 255
2019-234T10:53:40.704,   1, 180,   1,   120,   4,          0,     46.128,  99216.844,   109.241,   -18.997,     0.597,   235.523, 2, 5.486E-04, -1.00,   2,  4.014E-03,  7.270E-05,  4.260E-14,  1.418E-14,  6.623E+01,  2.205E+01, 255
2019-234T10:55:40.706,   1, 180,   1,   120,   4,          0,     46.128,  99216.844,   109.240,   -18.997,     0.597,   234.314, 2, 5.486E-04, -1.00,   2,  4.193E-03,  7.343E-05,  7.408E-14,  1.449E-14,  1.103E+02,  2.157E+01, 255
2019-234T10:57:40.707,   1, 180,   1,   120,   4,          0,     46.128,  99216.844,   109.238,   -18.996,     0.597,   233.105, 2, 5.486E-04, -1.00,   2,  4.077E-03,  7.328E-05,  1.292E-13,  1.512E-14,  1.977E+02,  2.314E+01, 255
2019-234T10:59:40.709,   1, 180,   1,   120,   4,          0,     46.128,  99216.844,   109.236,   -18.996,     0.597,   231.895, 2, 5.486E-04, -1.00,   2,  4.103E-03,  7.299E-05,  5.586E-14,  1.431E-14,  8.497E+01,  2.176E+01, 255
2019-234T11:01:40.710,   1, 180,   1,   120,   4,          0,     46.128,  99216.844,   109.235,   -18.995,     0.597,   230.686, 2, 5.486E-04, -1.00,   2,  4.587E-03,  7.614E-05,  1.954E-13,  1.490E-14,  2.659E+02,  2.027E+01, 255
2019-234T11:03:40.711,   1, 180,   1,   120,   4,          0,     46.128,  99216.844,   109.233,   -18.995,     0.597,   229.477, 2, 5.486E-04, -1.00,   2,  4.867E-03,  7.989E-05,  1.456E-13,  1.463E-14,  1.867E+02,  1.876E+01, 255
2019-234T11:05:40.713,   1, 180,   1,   120,   4,          0,     46.128,  99216.844,   109.231,   -18.994,     0.597,   228.268, 2, 5.486E-04, -1.00,   2,  4.184E-03,  7.619E-05,  1.261E-13,  1.482E-14,  1.881E+02,  2.210E+01, 255
2019-234T11:07:40.714,   1, 180,   1,   120,   4,          0,     46.128,  99216.844,   109.230,   -18.994,     0.597,   227.059, 2, 5.486E-04, -1.00,   2,  4.168E-03,  7.547E-05,  5.239E-14,  1.456E-14,  7.846E+01,  2.181E+01, 255
2019-234T11:09:40.716,   1, 180,   1,   120,   4,          0,     46.128,  99216.844,   109.228,   -18.993,     0.597,   225.849, 2, 5.486E-04, -1.00,   2,  4.483E-03,  7.727E-05,  7.006E-14,  1.454E-14,  9.754E+01,  2.025E+01, 255
2019-234T11:11:40.717,   1, 180,   1,   120,   4,          0,     46.128,  99216.844,   109.226,   -18.993,     0.597,   224.640, 2, 5.486E-04, -1.00,   2,  4.566E-03,  7.722E-05,  6.682E-14,  1.392E-14,  9.133E+01,  1.902E+01, 255
2019-234T11:13:40.718,   1, 180,   1,   120,   4,          0,     46.128,  99216.844,   109.225,   -18.992,     0.597,   223.431, 2, 5.486E-04, -1.00,   2,  4.547E-03,  7.690E-05,  1.902E-13,  1.527E-14,  2.611E+02,  2.096E+01, 255
2019-234T11:15:40.720,   1, 180,   1,   120,   4,          0,     46.128,  99216.844,   109.223,   -18.992,     0.597,   222.222, 2, 5.486E-04, -1.00,   2,  4.178E-03,  7.518E-05,  1.040E-13,  1.471E-14,  1.553E+02,  2.197E+01, 255
2019-234T11:17:40.721,   1, 180,   1,   120,   4,          0,     46.128,  99216.844,   109.221,   -18.991,     0.597,   221.013, 2, 5.486E-04, -1.00,   2,  4.134E-03,  7.231E-05,  1.272E-13,  1.459E-14,  1.921E+02,  2.204E+01, 255
2019-234T11:19:40.722,   1, 180,   1,   120,   4,          0,     46.128,  99216.844,   109.220,   -18.991,     0.597,   219.803, 2, 5.486E-04, -1.00,   2,  3.232E-03,  7.122E-05,  3.933E-14,  1.449E-14,  7.595E+01,  2.799E+01, 255
2019-234T14:33:40.855,   1, 180,   1,   120,   4,          0,     46.128,  99216.844,   109.058,   -18.943,     0.596,   102.511, 2, 5.486E-04, -1.00,   2,  3.535E-03,  7.176E-05,  2.411E-13,  1.517E-14,  4.256E+02,  2.678E+01, 255
2019-234T14:35:40.856,   1, 180,   1,   120,   4,          0,     46.128,  99216.844,   109.057,   -18.943,     0.596,   101.302, 2, 5.486E-04, -1.00,   2,  3.762E-03,  7.368E-05,  1.252E-13,  1.435E-14,  2.076E+02,  2.380E+01, 255
2019-234T14:37:40.858,   1, 180,   1,   120,   4,          0,     46.128,  99216.844,   109.055,   -18.942,     0.596,   100.093, 2, 5.486E-04, -1.00,   2,  4.238E-03,  7.379E-05,  1.173E-13,  1.463E-14,  1.727E+02,  2.155E+01, 255
2019-234T14:39:40.859,   1, 180,   1,   120,   4,          0,     46.128,  99216.844,   109.053,   -18.942,     0.596,    98.883, 2, 5.486E-04, -1.00,   2,  4.481E-03,  7.755E-05,  1.205E-13,  1.486E-14,  1.679E+02,  2.070E+01, 255
2019-234T14:41:40.860,   1, 180,   1,   120,   4,          0,     46.128,  99216.844,   109.052,   -18.941,     0.596,    97.674, 2, 5.486E-04, -1.00,   2,  4.422E-03,  7.728E-05,  6.063E-14,  1.414E-14,  8.558E+01,  1.996E+01, 255
2019-234T14:43:40.862,   1, 180,   1,   120,   4,          0,     46.128,  99216.844,   109.050,   -18.941,     0.596,    96.465, 2, 5.486E-04, -1.00,   2,  4.256E-03,  7.603E-05,  2.827E-14,  1.414E-14,  4.147E+01,  2.074E+01, 255
2019-234T14:45:40.863,   1, 180,   1,   120,   4,          0,     46.128,  99216.844,   109.048,   -18.940,     0.596,    95.256, 2, 5.486E-04, -1.00,   2,  4.307E-03,  7.594E-05,  1.010E-13,  1.448E-14,  1.463E+02,  2.098E+01, 255
2019-234T14:47:40.865,   1, 180,   1,   120,   4,          0,     46.128,  99216.844,   109.047,   -18.940,     0.596,    94.047, 2, 5.486E-04, -1.00,   2,  4.341E-03,  7.590E-05,  4.670E-14,  1.431E-14,  6.715E+01,  2.057E+01, 255
2019-234T14:49:40.866,   1, 180,   1,   120,   4,          0,     46.128,  99216.844,   109.045,   -18.939,     0.596,    92.837, 2, 5.486E-04, -1.00,   2,  4.399E-03,  7.582E-05,  1.121E-13,  1.461E-14,  1.590E+02,  2.073E+01, 255
2019-234T14:51:40.867,   1, 180,   1,   120,   4,          0,     46.128,  99216.844,   109.043,   -18.939,     0.596,    91.628, 2, 5.486E-04, -1.00,   2,  4.360E-03,  7.603E-05,  7.423E-14,  1.425E-14,  1.063E+02,  2.040E+01, 255
2019-234T14:53:40.869,   1, 180,   1,   120,   4,          0,     46.128,  99216.844,   109.042,   -18.938,     0.596,    90.419, 2, 5.486E-04, -1.00,   2,  4.257E-03,  7.472E-05,  3.900E-14,  1.411E-14,  5.717E+01,  2.069E+01, 255
2019-234T14:55:40.870,   1, 180,   1,   120,   4,          0,     46.128,  99216.844,   109.040,   -18.938,     0.596,    89.210, 2, 5.486E-04, -1.00,   2,  3.932E-03,  7.218E-05,  1.433E-13,  1.461E-14,  2.275E+02,  2.319E+01, 255
2019-234T14:57:40.871,   1, 180,   1,   120,   4,          0,     46.128,  99216.844,   109.038,   -18.937,     0.596,    88.001, 2, 5.486E-04, -1.00,   2,  4.036E-03,  7.360E-05,  7.564E-14,  1.387E-14,  1.170E+02,  2.145E+01, 255
2019-234T14:59:40.873,   1, 180,   1,   120,   4,          0,     46.128,  99216.844,   109.036,   -18.937,     0.596,    86.791, 2, 5.486E-04, -1.00,   2,  3.848E-03,  7.117E-05,  1.047E-13,  1.453E-14,  1.698E+02,  2.357E+01, 255
2019-234T15:01:40.874,   1, 180,   1,   120,   4,          0,     46.128,  99216.844,   109.035,   -18.936,     0.595,    85.582, 2, 5.486E-04, -1.00,   2,  3.969E-03,  7.345E-05,  7.656E-14,  1.458E-14,  1.204E+02,  2.293E+01, 255
2019-234T15:03:40.875,   1, 180,   1,   120,   4,          0,     46.128,  99216.844,   109.033,   -18.936,     0.595,    84.373, 2, 5.486E-04, -1.00,   2,  3.673E-03,  7.131E-05,  7.657E-14,  1.510E-14,  1.301E+02,  2.565E+01, 255
2019-234T15:05:40.877,   1, 180,   1,   120,   4,          0,     46.128,  99216.844,   109.031,   -18.936,     0.595,    83.164, 2, 5.486E-04, -1.00,   2,  3.389E-03,  6.954E-05,  1.173E-13,  1.466E-14,  2.160E+02,  2.699E+01, 255
2019-234T15:07:40.878,   1, 180,   1,   120,   4,          0,     46.128,  99216.844,   109.030,   -18.935,     0.595,    81.955, 2, 5.486E-04, -1.00,   2,  3.381E-03,  6.967E-05,  6.700E-14,  1.462E-14,  1.237E+02,  2.699E+01, 255
2019-234T15:11:40.881,   1, 180,   1,   120,   4,          0,     46.128,  99216.844,   109.026,   -18.934,     0.595,    79.536, 2, 5.486E-04, -1.00,   2,  3.168E-03,  6.943E-05,  4.338E-14,  1.436E-14,  8.548E+01,  2.830E+01, 255
2019-234T15:13:40.882,   1, 180,   1,   120,   4,          0,     46.128,  99216.844,   109.025,   -18.934,     0.595,    78.327, 2, 5.486E-04, -1.00,   2,  3.441E-03,  7.306E-05,  3.528E-14,  1.477E-14,  6.400E+01,  2.679E+01, 255
2019-234T15:15:40.884,   1, 180,   1,   120,   4,          0,     46.128,  99216.844,   109.023,   -18.933,     0.595,    77.118, 2, 5.486E-04, -1.00,   2,  3.212E-03,  6.894E-05,  1.145E-13,  1.489E-14,  2.226E+02,  2.894E+01, 255
2019-234T15:27:40.892,   1, 180,   1,   120,   4,          0,     46.128,  99216.844,   109.013,   -18.930,     0.595,    69.863, 2, 5.486E-04, -1.00,   2,  3.882E-03,  7.158E-05,  6.358E-14,  1.448E-14,  1.022E+02,  2.328E+01, 255
2019-234T15:29:40.893,   1, 180,   1,   120,   4,          0,     46.128,  99216.844,   109.011,   -18.930,     0.595,    68.653, 2, 5.486E-04, -1.00,   2,  3.903E-03,  7.394E-05,  1.379E-13,  1.532E-14,  2.205E+02,  2.449E+01, 255
2019-234T15:31:40.895,   1, 180,   1,   120,   4,          0,     46.128,  99216.844,   109.009,   -18.929,     0.595,    67.444, 2, 5.486E-04, -1.00,   2,  4.147E-03,  7.436E-05,  1.290E-13,  1.432E-14,  1.941E+02,  2.156E+01, 255
2019-234T15:33:40.896,   1, 180,   1,   120,   4,          0,     46.128,  99216.844,   109.008,   -18.929,     0.595,    66.235, 2, 5.486E-04, -1.00,   2,  3.650E-03,  7.342E-05,  1.567E-14,  1.458E-14,  2.680E+01,  2.492E+01, 255
2019-234T15:35:40.897,   1, 180,   1,   120,   4,          0,     46.128,  99216.844,   109.006,   -18.928,     0.595,    65.026, 2, 5.486E-04, -1.00,   2,  3.532E-03,  7.082E-05,  1.392E-13,  1.519E-14,  2.460E+02,  2.684E+01, 255
2019-234T15:37:40.899,   1, 180,   1,   120,   4,          0,     46.128,  99216.844,   109.004,   -18.928,     0.595,    63.817, 2, 5.486E-04, -1.00,   2,  3.884E-03,  7.436E-05,  6.582E-14,  1.401E-14,  1.058E+02,  2.252E+01, 255
2019-234T15:39:40.900,   1, 180,   1,   120,   4,          0,     46.128,  99216.844,   109.003,   -18.927,     0.595,    62.607, 2, 5.486E-04, -1.00,   2,  3.721E-03,  7.236E-05,  7.303E-14,  1.471E-14,  1.225E+02,  2.468E+01, 255